Regional Weather Roundup
Issued by NWS Albany, NY

Home | Current Version | Previous Version | Text Only | Print | Product List | Glossary On
Versions: 1 2 3 4 5 6 7 8 9 10 11 12 13 14 15 16 17 18 19 20 21 22 23 24 25 26 27 28 29
000
ASUS41 KALY 291410
RWRALY

NEW YORK STATE HOURLY WEATHER ROUNDUP
NATIONAL WEATHER SERVICE ALBANY NY
1000 AM EDT FRI APR 29 2016

NOTE: "FAIR" INDICATES FEW OR NO CLOUDS BELOW 12,000 FEET WITH NO
SIGNIFICANT WEATHER AND/OR NO OBSTRUCTIONS TO VISIBILITY.

NYZ032-033-038>043-046>054-057>066-NYZ062>081-082-084-291500-
EAST


CITY           SKY/WX    TMP DP  RH WIND       PRES   REMARKS
ALBANY         CLOUDY    49  26  41 CALM      30.14F
GLENS FALLS    SUNNY     47  23  38 CALM      30.14F
POUGHKEEPSIE   CLOUDY    54  28  36 S7        30.11F
NEWBURGH       PTSUNNY   48  37  66 SE6       30.12S
MONTGOMERY     CLOUDY    49  35  58 NE9       30.12R
WHITE PLAINS   PTSUNNY   49  33  54 E12G20    30.11S
ISLIP          PTSUNNY   52  29  41 E17G25    30.13R
NEW YORK CITY  CLOUDY    53  30  41 E12       30.12R
CENTRAL PARK   CLOUDY    52  31  44 VRB5      30.14R
$$

NYZ005>009-017-018-044>046-055-056-291500-
CENTRAL


CITY           SKY/WX    TMP DP  RH WIND       PRES   REMARKS
FULTON         SUNNY     53  31  42 VRB5      30.08S
SYRACUSE       CLOUDY    48  29  47 CALM      30.08R
ROME           SUNNY     49  25  39 E9        30.10F
ELMIRA         CLOUDY    48  34  58 N3        30.05S
BINGHAMTON     CLOUDY    47  40  76 SE8       30.03F
MONTICELLO     CLOUDY    45  36  70 E9        30.10S
$$

NYZ026>034-041>043-087-291500-
NORTH


CITY           SKY/WX    TMP DP  RH WIND       PRES   REMARKS
WATERTOWN      SUNNY     49  25  39 NE7       30.09F
FORT DRUM      NOT AVBL
MASSENA        SUNNY     45  18  34 NE17      30.18S
SARANAC LAKE   SUNNY     43  11  27 NE8       30.07F
PLATTSBURGH    SUNNY     42  21  43 E5        30.18S
$$

NYZ001>004-010>016-019>021-085-291500-
WEST


CITY           SKY/WX    TMP DP  RH WIND       PRES   REMARKS
NIAGARA FALLS  PTSUNNY   49  29  46 NE14      30.05S
BUFFALO        PTSUNNY   46  28  49 NE9       30.05S
DUNKIRK        CLOUDY    49  34  56 N9        30.02S
JAMESTOWN      CLOUDY    45  37  76 SE6       29.99S
WELLSVILLE     CLOUDY    42  39  89 SE6       30.02R
ROCHESTER      CLOUDY    48  32  53 N3        30.07F
PENN YAN       CLOUDY    44  33  65 E3        30.06S
$$

             KEY
       WCI = WIND CHILL INDEX
       VSB = VISIBILITY
       HX  = HEAT INDEX
$$




USA.gov is the U.S. government's official web portal to all federal, state and local government web resources and services.